Weather History for KNDZ - January, 2013

Change the Weather History Date:

Sunday, January 13, 2013

  Actual Average (KNSE) Record (KNSE)
Temperature  
Mean Temperature 73 °F -  
Max Temperature 75 °F 59 °F 84 °F (1999)
Min Temperature 71 °F 40 °F 24 °F (2011)
Cooling Degree Days 8    
Growing Degree Days 23 (Base 50)    
Moisture  
Dew Point 68 °F    
Average Humidity 84    
Maximum Humidity 93    
Minimum Humidity 73    
Precipitation  
Precipitation 0.12 in - - ()
Sea Level Pressure  
Sea Level Pressure 30.01 in    
Wind  
Wind Speed 14 mph (South)    
Max Wind Speed 17 mph    
Max Gust Speed 30 mph    
Visibility 10 miles    
Events      
Averages and records for this station are not official NWS values.
T = Trace of Precipitation, MM = Missing Value Source: NWS Daily Summary

Daily Weather History Graph

Daily Weather History Graph

Search for Another Location

Airport or City:

Trip Planner

Search our weather history database for the weather conditions in past years. The results will help you decide how hot, cold, wet, or windy it might be!

Date:

Astronomy

Jan. 13, 2013 Rise Set
Actual Time 6:46 AM CST 5:07 PM CST
Civil Twilight 6:20 AM CST 5:33 PM CST
Nautical Twilight 5:50 AM CST 6:03 PM CST
Astronomical Twilight 5:21 AM CST 6:32 PM CST
Moon 7:55 AM CST (1/13) 7:32 PM CST (1/13)
Length of Visible Light 11h 13m
Length of Day
10h 21m
Waxing Crescent, 5% of the Moon is Illuminated
Jan 13
Waxing Crescent
Jan 18
First Quarter
Jan 26
Full
Feb 3
Last Quarter
Feb 10
New

Hourly Weather History & Observations

Time (CST) Temp. Dew Point Humidity Pressure Visibility Wind Dir Wind Speed Gust Speed Precip Events Conditions
12:56 AM - - N/A% 30.02 in - North - - N/A   Unknown
1:56 AM - - N/A% 30.00 in - North - - N/A   Unknown
2:56 AM - - N/A% 29.98 in - North - - N/A   Unknown
3:56 AM - - N/A% 29.97 in - North - - N/A   Unknown
4:56 AM - - N/A% 30.00 in - North - - N/A   Unknown
5:56 AM - - N/A% 30.01 in - North - - N/A   Unknown
6:56 AM - - N/A% 30.01 in - North - - N/A   Unknown
7:56 AM - - N/A% 30.02 in - North - - N/A   Unknown
9:56 AM - - N/A% 30.03 in - North - - N/A   Unknown
10:56 AM 75.0 °F 66.9 °F 76% 30.02 in 10.0 mi South 17.3 mph 29.9 mph N/A   Unknown
11:19 AM 75.2 °F 66.2 °F 73% 30.02 in 10.0 mi South 15.0 mph 24.2 mph N/A   Overcast
11:56 AM 75.0 °F 66.9 °F 76% 30.02 in 10.0 mi South 16.1 mph 27.6 mph N/A   Mostly Cloudy
12:53 PM 75.2 °F 66.2 °F 73% 30.00 in 10.0 mi South 15.0 mph - N/A   Overcast
12:56 PM 75.0 °F 66.9 °F 76% 30.00 in 10.0 mi South 13.8 mph 23.0 mph N/A   Overcast
1:56 PM 73.9 °F 66.9 °F 79% 30.00 in 10.0 mi South 15.0 mph 24.2 mph N/A   Overcast
2:46 PM 73.4 °F 66.2 °F 78% 30.00 in 10.0 mi South 15.0 mph 23.0 mph N/A   Overcast
2:56 PM 73.9 °F 66.9 °F 79% 30.00 in 10.0 mi South 11.5 mph 20.7 mph N/A   Overcast
3:56 PM 73.0 °F 66.9 °F 81% 30.01 in 10.0 mi South 9.2 mph - N/A   Overcast
4:56 PM 72.0 °F 66.9 °F 84% 30.02 in 10.0 mi South 11.5 mph - N/A   Overcast
5:56 PM 71.1 °F 68.0 °F 90% 30.03 in 10.0 mi South 11.5 mph 20.7 mph 0.06 in   Overcast
6:16 PM 71.6 °F 68.0 °F 88% 30.02 in 10.0 mi South 11.5 mph 18.4 mph N/A   Overcast
6:56 PM 71.1 °F 68.0 °F 90% 30.04 in 10.0 mi South 13.8 mph - N/A   Overcast
7:56 PM 71.1 °F 69.1 °F 93% 30.03 in 10.0 mi South 13.8 mph 18.4 mph 0.06 in   Overcast
8:56 PM 71.1 °F 69.1 °F 93% 30.03 in 10.0 mi South 11.5 mph - N/A   Overcast
9:56 PM 71.1 °F 69.1 °F 93% 30.04 in 10.0 mi South 11.5 mph - N/A   Overcast
10:56 PM 71.1 °F 69.1 °F 93% 29.99 in 10.0 mi South 10.4 mph - N/A   Overcast
11:56 PM 71.1 °F 69.1 °F 93% 29.99 in 10.0 mi South 11.5 mph - N/A   Overcast